Flag for Germany Weather past 2 weeks in Wesseling, North Rhine-Westphalia, Germany

Now
93 °F

Partly sunny.


Feels Like: 99 °F
Forecast: 60 / 77 °F
Wind: 5 mph from Northwest

Location: Koeln / Bonn

Current Time: Jul 5, 2015 at 5:26:18 PM

Latest Report: Jul 5, 2015 at 5:00 PM


Visibility: 16 mi

Pressure: 29.83 "Hg

Humidity: 48%

Dew point: 70 °F

Location of WesselingLocation

Historic Weather in Wesseling — Graph

°F

Wesseling temperature yesterday

Maximum temperature yesterday: 98 °F (at 3:00 PM)
Minimum temperature yesterday: 71 °F (at 4:00 AM)
Average temperature yesterday: 85 °F

Past Weeks' High & Low Weather Summary

 TemperatureHumidityPressure
High98 °F (Jul 4, 3:00 PM)99% (Jun 22, 10:00 PM)30.24 "Hg (Jun 22, 10:00 PM)
Low49 °F (Jun 23, 1:00 AM)22% (Jun 30, 4:00 PM)29.71 "Hg (Jun 22, 9:00 PM)
Average69 °F66%30.08 "Hg
* Reported Jun 20 4:00 PM — Jul 5 4:00 PM, Wesseling, Weather by CustomWeather, © 2015

Note: Actual official high and low records may vary slightly from our data, if they occured in-between our weather recording intervals... More about our weather records

Advertising

Wesseling weather history for previous 24 hours

 ConditionsComfort  
Time TempWeatherWind HumidityBarometerVisibility
4:00 PM
Sun, Jul 5
93 °FThunderstorms. Partly sunny.1 mph47%29.86 "Hg19 mi
3:00 PM90 °FPartly sunny.5 mph54%29.88 "Hg19 mi
2:00 PM86 °FPartly sunny.3 mph57%29.92 "Hg19 mi
1:00 PM79 °FOvercast.2 mph79%29.96 "Hg22 mi
12:00 PM76 °FScattered clouds.1 mph82%29.98 "Hg22 mi
11:00 AM71 °FThunderstorms. Partly sunny.2 mph86%30.02 "Hg22 mi
10:00 AM69 °FThunderstorms. Overcast.5 mph85%30.03 "Hg12 mi
9:00 AM73 °FThunderstorms. Partly sunny.1 mph67%30.05 "Hg25 mi
8:00 AM72 °FThunderstorms. Passing clouds.1 mph71%30.06 "Hg31 mi
7:00 AM70 °FThunderstorms. Passing clouds.3 mph74%30.08 "Hg31 mi
5:00 AM71 °FPassing clouds.2 mph67%30.09 "Hg28 mi
4:00 AM70 °FPassing clouds.3 mph67%30.10 "Hg31 mi
3:00 AM75 °FPassing clouds.5 mph55%30.10 "Hg31 mi
2:00 AM77 °FPassing clouds.5 mph56%30.10 "Hg28 mi
1:00 AM79 °FPassing clouds.5 mph64%30.09 "Hg19 mi
12:00 AM80 °FPassing clouds.5 mph63%30.08 "Hg16 mi
11:00 PM
Sat, Jul 4
79 °FPassing clouds.1 mph63%30.07 "Hg16 mi
10:00 PM83 °FPassing clouds.1 mph55%30.06 "Hg19 mi
9:00 PM88 °FPartly sunny.2 mph44%30.05 "Hg22 mi
8:00 PM90 °FPartly sunny.3 mph39%30.06 "Hg25 mi
7:00 PM96 °FPartly sunny.3 mph29%30.05 "Hg17 mi
6:00 PM95 °FPartly sunny.5 mph32%30.06 "Hg19 mi
5:00 PM97 °FScattered clouds.6 mph28%30.06 "Hg19 mi
Weather by CustomWeather, © 2015

See weather overviewHow to use our weather pages